Rocky Mount, NC

1:16 AM EDT on September 22, 2017 (GMT -0400)
Rocky Mount-Wilson Regional

Weather History for KRWI - January, 2013

Change the Weather History Date:

Sunday, January 13, 2013

  Actual Average Record
Temperature  
Mean Temperature 65 °F -  
Max Temperature 73 °F 47 °F 77 °F (2005)
Min Temperature 57 °F 27 °F 2 °F (1962)
Growing Degree Days 15 (Base 50)    
Moisture  
Dew Point 58 °F    
Average Humidity 88    
Maximum Humidity 100    
Minimum Humidity 62    
Precipitation  
Precipitation 0.01 in - - ()
Sea Level Pressure  
Sea Level Pressure 30.12 in    
Wind  
Wind Speed 3 mph (South)    
Max Wind Speed 8 mph    
Max Gust Speed -    
Visibility 5 miles    
Events Fog    
Averages and records for this station are not official NWS values.
T = Trace of Precipitation, MM = Missing Value Source: NWS Daily Summary

Daily Weather History Graph

Daily Weather History Graph

Search for Another Location

Airport or City:

Trip Planner

Search our weather history database for the weather conditions in past years. The results will help you decide how hot, cold, wet, or windy it might be!

Date:

Astronomy

Jan. 13, 2013 Rise Set
Actual Time 7:21 AM EST 5:19 PM EST
Civil Twilight 6:53 AM EST 5:47 PM EST
Nautical Twilight 6:22 AM EST 6:18 PM EST
Astronomical Twilight 5:51 AM EST 6:49 PM EST
Moon 8:24 AM EST (1/13) 7:49 PM EST (1/13)
Length of Visible Light 10h 53m
Length of Day
9h 58m
Waxing Crescent, 5% of the Moon is Illuminated
Jan 13
Waxing Crescent
Jan 18
First Quarter
Jan 26
Full
Feb 3
Last Quarter
Feb 10
New

Hourly Weather History & Observations

Time (EST) Temp. Dew Point Humidity Pressure Visibility Wind Dir Wind Speed Gust Speed Precip Events Conditions
12:53 AM 57.0 °F 55.9 °F 96% 30.13 in 0.2 mi Calm Calm - N/A Fog Fog
1:53 AM 57.0 °F 55.9 °F 96% 30.13 in 0.2 mi Calm Calm - N/A Fog Fog
2:41 AM 57.2 °F 55.4 °F 94% 30.13 in 0.5 mi Calm Calm - N/A Fog Fog
2:53 AM 57.9 °F 57.0 °F 97% 30.13 in 0.5 mi Variable 3.5 mph - N/A Fog Fog
3:53 AM 57.9 °F 57.0 °F 97% 30.12 in 0.5 mi Calm Calm - N/A Fog Fog
4:07 AM 57.2 °F 57.2 °F 100% 30.11 in 0.2 mi Calm Calm - N/A Fog Fog
4:53 AM 57.9 °F 57.0 °F 97% 30.11 in 0.2 mi Calm Calm - N/A Fog Fog
5:53 AM 57.9 °F 57.0 °F 97% 30.12 in 0.2 mi Calm Calm - 0.01 in Fog Fog
6:53 AM 57.9 °F 57.0 °F 97% 30.13 in 0.2 mi SSE 3.5 mph - N/A Fog Fog
7:08 AM 57.2 °F 55.4 °F 94% 30.13 in 0.5 mi SSE 3.5 mph - N/A Fog Fog
7:22 AM 57.2 °F 55.4 °F 94% 30.13 in 0.2 mi South 5.8 mph - N/A Fog Fog
7:53 AM 57.0 °F 55.9 °F 96% 30.14 in 0.2 mi South 5.8 mph - N/A Fog Fog
8:53 AM 57.9 °F 57.0 °F 97% 30.15 in 0.2 mi South 3.5 mph - N/A Fog Fog
9:53 AM 59.0 °F 57.9 °F 96% 30.15 in 0.2 mi South 4.6 mph - N/A Fog Fog
10:00 AM 59.0 °F 57.2 °F 94% 30.15 in 0.5 mi South 4.6 mph - N/A Fog Fog
10:34 AM 60.8 °F 59.0 °F 94% 30.15 in 1.2 mi SSW 6.9 mph - N/A   Overcast
10:48 AM 60.8 °F 60.8 °F 100% 30.15 in 2.5 mi SSW 5.8 mph - N/A   Overcast
10:53 AM 61.0 °F 60.1 °F 97% 30.15 in 3.0 mi SSW 6.9 mph - N/A   Overcast
11:45 AM 64.4 °F 60.8 °F 88% 30.12 in 8.0 mi SSW 3.5 mph - N/A   Scattered Clouds
11:53 AM 64.9 °F 60.1 °F 84% 30.12 in 9.0 mi SSW 4.6 mph - N/A   Partly Cloudy
12:53 PM 70.0 °F 60.1 °F 71% 30.09 in 10.0 mi South 5.8 mph - N/A   Clear
1:53 PM 73.0 °F 60.1 °F 64% 30.07 in 10.0 mi South 6.9 mph - N/A   Clear
2:53 PM 73.9 °F 60.1 °F 62% 30.08 in 10.0 mi South 6.9 mph - N/A   Clear
3:53 PM 73.0 °F 60.1 °F 64% 30.09 in 10.0 mi South 5.8 mph - N/A   Clear
4:53 PM 68.0 °F 61.0 °F 78% 30.09 in 10.0 mi Calm Calm - N/A   Partly Cloudy
5:53 PM 63.0 °F 59.0 °F 87% 30.09 in 10.0 mi SSE 3.5 mph - N/A   Clear
6:53 PM 66.0 °F 57.9 °F 75% 30.08 in 10.0 mi SSE 5.8 mph - N/A   Clear
7:53 PM 63.0 °F 57.0 °F 81% 30.08 in 10.0 mi South 4.6 mph - N/A   Clear
8:53 PM 62.1 °F 55.9 °F 80% 30.08 in 10.0 mi South 4.6 mph - N/A   Clear
9:53 PM 63.0 °F 57.0 °F 81% 30.09 in 10.0 mi South 8.1 mph - N/A   Clear
10:53 PM 62.1 °F 57.0 °F 84% 30.10 in 10.0 mi South 6.9 mph - N/A   Clear
11:53 PM 62.1 °F 57.9 °F 86% 30.11 in 10.0 mi South 6.9 mph - N/A   Clear